|
Cosmos 1400 Rocket - Orbit
|
Whitehorse;
08:19:04
| Home | Info | Passes |
|
View from above orbital plane
|
View from above satellite
|
Ground track
|
The orbit data is extracted from the following two-line orbital elements,
1 13403U 82079B 13143.18616700 .00002169 00000-0 16216-3 0 2998
2 13403 081.1702 166.3853 0038854 120.5834 239.9229 15.01783632673250
| Epoch (UTC): | 23 May 2013 04:28:04 |
| Eccentricity: | 0.0038854 |
| inclination: | 81.1702° |
| perigee height: | 534 km |
| apogee height: | 588 km |
| right ascension of ascending node: | 166.3853° |
| argument of perigee: | 120.5834° |
| revolutions per day: | 15.01783632 |
| mean anomaly at epoch: | 239.9229° |
| orbit number at epoch: | 67325 |
The dashed part of the orbit path shows where the satellite is in the earth's shadow,
|
|